TimeCST,TemperatureF,Dew PointF,Humidity,Sea Level PressureIn,VisibilityMPH,Wind Direction,Wind SpeedMPH,Gust SpeedMPH,PrecipitationIn,Events,Conditions,WindDirDegrees,DateUTC
12:00 AM,66,64,89,29.83,12,East,3.5,,,,Scattered Clouds,80,2013-06-20 06:00:00
12:00 AM,66.2,64.4,94,29.97,6.2,East,3.5,-,N/A,,Scattered Clouds,80,2013-06-20 06:00:00
1:00 AM,66.2,64.4,94,29.96,6.2,NE,4.6,-,N/A,,Scattered Clouds,40,2013-06-20 07:00:00
2:00 AM,66.2,64.4,94,29.95,-9999.0,East,4.6,-,N/A,,Clear,90,2013-06-20 08:00:00
3:00 AM,65,63,92,29.79,12,,4.6,,,,Clear,,2013-06-20 09:00:00
4:00 AM,66.2,60.8,83,29.92,-9999.0,NE,6.9,-,N/A,,Clear,40,2013-06-20 10:00:00
5:00 AM,64.4,60.8,88,29.93,-9999.0,North,2.3,-,N/A,,Clear,10,2013-06-20 11:00:00
6:00 AM,67,62,78,29.81,12,ENE,4.6,,,,Clear,70,2013-06-20 12:00:00
6:00 AM,66.2,62.6,88,29.96,-9999.0,ENE,4.6,-,N/A,,Clear,70,2013-06-20 12:00:00
7:00 AM,69.8,62.6,78,29.97,-9999.0,NNE,6.9,-,N/A,,Clear,30,2013-06-20 13:00:00
8:00 AM,71.6,62.6,73,29.98,-9999.0,ENE,5.8,-,N/A,,Clear,70,2013-06-20 14:00:00
9:00 AM,73,64,66,29.84,12,SE,4.6,,,,Scattered Clouds,140,2013-06-20 15:00:00
9:00 AM,73.4,64.4,73,30.00,6.2,SE,4.6,-,N/A,,Mostly Cloudy,140,2013-06-20 15:00:00
10:00 AM,75.2,66.2,73,30.01,6.2,NW,3.5,-,N/A,,Mostly Cloudy,320,2013-06-20 16:00:00
11:00 AM,77.0,66.2,69,29.99,6.2,SSW,3.5,-,N/A,,Mostly Cloudy,200,2013-06-20 17:00:00
12:00 PM,79,65,53,29.80,12,ESE,6.9,,,,Scattered Clouds,120,2013-06-20 18:00:00
12:00 PM,78.8,64.4,61,29.97,6.2,ESE,6.9,-,N/A,,Mostly Cloudy,120,2013-06-20 18:00:00
1:00 PM,78.8,62.6,57,29.94,6.2,SE,8.1,-,N/A,,Mostly Cloudy,130,2013-06-20 19:00:00
2:00 PM,78.8,68.0,69,29.93,6.2,West,6.9,-,N/A,,Mostly Cloudy,260,2013-06-20 20:00:00
3:00 PM,79,64,51,29.75,12,ESE,11.5,,,,Overcast,110,2013-06-20 21:00:00
3:00 PM,78.8,64.4,61,29.91,6.2,ESE,11.5,-,N/A,,Mostly Cloudy,110,2013-06-20 21:00:00
3:15 PM,78.8,68.0,69,29.92,6.2,West,11.5,-,N/A,,Mostly Cloudy,260,2013-06-20 21:15:00
4:00 PM,77.0,66.2,69,29.92,6.2,SW,10.4,-,N/A,,Mostly Cloudy,230,2013-06-20 22:00:00
5:00 PM,73.4,66.2,78,29.94,6.2,SW,10.4,-,N/A,,Mostly Cloudy,220,2013-06-20 23:00:00
6:00 PM,71,65,78,29.80,12,West,10.4,,,Rain,Light Drizzle,280,2013-06-21 00:00:00
6:00 PM,71.6,66.2,83,29.95,6.2,West,10.4,-,N/A,,Light Drizzle,280,2013-06-21 00:00:00
7:00 PM,69.8,66.2,88,29.97,6.2,NW,5.8,-,N/A,,Mostly Cloudy,320,2013-06-21 01:00:00
8:00 PM,69.8,66.2,88,29.98,6.2,South,3.5,-,N/A,,Mostly Cloudy,180,2013-06-21 02:00:00
9:00 PM,70,66,83,29.87,9,NNW,2.3,,,,Scattered Clouds,330,2013-06-21 03:00:00
9:00 PM,69.8,66.2,88,30.01,6.2,NNW,2.3,-,N/A,,Mostly Cloudy,330,2013-06-21 03:00:00
10:00 PM,69.8,66.2,88,30.02,6.2,North,4.6,-,N/A,,Mostly Cloudy,350,2013-06-21 04:00:00
11:00 PM,68.0,66.2,94,30.02,6.2,East,3.5,-,N/A,,Mostly Cloudy,100,2013-06-21 05:00:00